Location: Newark
(43.2858°N, 16.6768°E)
Time: 07:20:40
(UTC+00:00)

Envisat - Visible Passes

Search period start: 20 September 2019 00:00
Search period end: 30 September 2019 00:00
Orbit: 764 x 766 km, 98.1° (Epoch: 20 September)

Date Brightness Start Highest point End Pass type
(mag) Time Alt. Az. Time Alt. Az. Time Alt. Az.
20 Sep 4.8 17:44:20 10° SSW 17:48:57 35° W 17:53:38 10° NNW visible
22 Sep 5.7 18:10:55 10° SW 18:14:41 21° W 18:18:28 10° NW visible
23 Sep 4.3 17:32:49 10° S 17:37:39 44° W 17:42:31 10° NNW visible
24 Sep 6.2 18:38:45 10° WSW 18:40:29 12° W 18:42:15 10° WNW visible
25 Sep 5.3 17:59:07 10° SSW 18:03:19 26° W 18:07:33 10° NW visible
26 Sep 3.8 17:21:23 10° S 17:26:21 56° W 17:31:22 10° NNW visible
27 Sep 6.0 18:26:13 10° SW 18:29:05 15° W 18:31:58 10° NW visible
28 Sep 4.9 17:47:27 10° SSW 17:51:59 32° W 17:56:32 10° NNW visible
29 Sep 3.4 17:10:01 10° S 17:15:04 71° WSW 17:20:10 10° NNW visible
